Lexington Weather

Lexington, Massachusetts, USA

46°F
10/22/2019 1:56am 
  • Lexington Conditions: Partly cloudy
  • Temperature: 46.0°F / 7.8°CWarmer 0.3°F than last hour.
  • Dew Point: 44.1°FIncreased 0.9°Fsince last hour.
  • Relative Humidity: 93%Increased 2.0% since last hour.
  • Wind: Calm, 10-min avg: Calm, gust: None
  • Barometer: 30.12 in Steady
  • Visibility: 9 miles
  • Rain Today: 0.00 in
  •   

Regional Weather Roundup
for Boston, MA

        
000
ASUS41 KBOX 201600
RWRBOX

REGIONAL WEATHER ROUNDUP
NATIONAL WEATHER SERVICE BOSTON/NORTON MA
1200 PM EDT SUN OCT 20 2019

NOTE:  "FAIR" INDICATES FEW OR NO CLOUDS BELOW 12,000 FEET WITH NO 
SIGNIFICANT WEATHER AND/OR OBSTRUCTIONS TO VISIBILITY.

MAZALL-201700-
EASTERN MASSACHUSETTS
  
CITY           SKY/WX    TMP DP  RH WIND       PRES   REMARKS
BOSTON         PTSUNNY   57  46  66 SE3       30.11R                  
BEVERLY        FAIR      57  44  62 CALM      30.10S                  
LAWRENCE       FAIR      57  44  62 SE3       30.12S                  
BEDFORD        PTSUNNY   58  43  57 CALM      30.09F                  
BLUE HILL      NOT AVBL                                               
NORWOOD        FAIR      61  43  51 CALM      30.09F                  
MARSHFIELD     NOT AVBL                                               
PLYMOUTH       FAIR      59  48  67 VRB5      30.10S                  
TAUNTON        FAIR      60  47  61 S3        30.09F                  
NEW BEDFORD    FAIR      60  49  66 SE5       30.08F                  
$$

MAZALL-201700-
CAPE COD AND THE ISLANDS
  
CITY           SKY/WX    TMP DP  RH WIND       PRES   REMARKS
FALMOUTH       MOSUNNY   59  50  72 S9        30.10F                  
HYANNIS        NOT AVBL                                               
CHATHAM        NOT AVBL                                               
PROVINCETOWN   FAIR      59  50  72 SW9         N/A                   
NANTUCKET      FAIR      58  46  64 SE9       30.11S                  
MARTHAS VNYRD  FAIR      61  44  53 SE10      30.10S                  
$$
 
MAZALL-201700-
CENTRAL AND WESTERN MASSACHUSETTS
  
CITY           SKY/WX    TMP DP  RH WIND       PRES   REMARKS
WORCESTER      FAIR      52  40  63 SE6       30.08F                  
FITCHBURG      FAIR      54  39  57 S3        30.10F                  
ORANGE         FAIR      55  37  50 CALM      30.09F                  
SPRINGFIELD    NOT AVBL                                               
WESTFIELD      PTSUNNY   54  38  54 CALM      30.08F                  
NORTH ADAMS    FAIR      58  38  47 VRB6      30.04F                  
PITTSFIELD     FAIR      54  38  54 VRB3      30.04F                  
$$
 
RIZALL-201700-
RHODE ISLAND
  
CITY           SKY/WX    TMP DP  RH WIND       PRES   REMARKS
PROVIDENCE     PTSUNNY   58  42  55 VRB5      30.10F                  
NEWPORT        FAIR      61  47  59 SE8       30.09F                  
BLOCK ISLAND   FAIR      59  48  67 SE7       30.08F                  
SMITHFIELD     FAIR     N/A N/A N/A E5        30.09F                  
WESTERLY       FAIR      61  50  67 E8        30.09F                  
$$
 
CTZALL-201700-
CONNECTICUT
  
CITY           SKY/WX    TMP DP  RH WIND       PRES   REMARKS
BRADLEY INTL   CLOUDY    55  39  54 CALM      30.08F                  
HARTFORD       FAIR      52  40  63 CALM      30.08F                  
BRIDGEPORT     FAIR      56  49  77 E8        30.07R                  
DANBURY        FAIR      51  42  71 CALM      30.08S                  
GROTON         NOT AVBL                                               
NEW HAVEN      FAIR      59  49  69 VRB3      30.07F                  
CHESTER        FAIR      59  48  67 CALM      30.07F                  
MERIDEN        FAIR      52  41  66 N6        30.07F                  
WILLIMANTIC    FAIR      55  43  63 CALM      30.09F                  
OXFORD         FAIR      53  46  77 E6        30.07F                  
$$

MEZ002-015-021-024-NHZ003-005-008-011-012-014-VTZ005-008-201700-
NORTHERN NEW ENGLAND
  
CITY           SKY/WX    TMP DP  RH WIND       PRES   REMARKS
PORTLAND ME    PTSUNNY   51  40  65 E5        30.13S                  
BANGOR ME      PTSUNNY   51  36  56 CALM      30.10F                  
CONCORD NH     FAIR      51  38  60 VRB3      30.11F                  
MANCHESTER NH  PTSUNNY   54  40  59 CALM      30.09F                  
NASHUA NH      FAIR      54  42  64 CALM      30.11F                  
PORTSMOUTH NH  PTSUNNY   55  44  66 NE5       30.09F                  
JAFFREY NH     FAIR      55  37  50 SE3       30.08F                  
KEENE NH       FAIR      50  38  63 CALM      30.08F                  
BURLINGTON VT  CLOUDY    51  37  58 S7        30.02F                  
MT. WASHINGTON CLOUDY    41  12  30 SW17        N/A                   
$$

NYZ052-076-201700-
EASTERN NEW YORK
  
CITY           SKY/WX    TMP DP  RH WIND       PRES   REMARKS
ALBANY         CLOUDY    51  39  63 S3        30.07S                  
NEW YORK CITY  CLOUDY    58  48  69 NE7       30.04S                  
$$
 
ANZALL-201700-
MARINE OBSERVATIONS
  
STATION/POSITION TIME  TEMP    WIND        PRES    VSBY  WAVE
                       AIR SEA DIR/SP/G                  HT/PER
                 (UTC) (F)     (DEG/KT/KT) (MB)    (MI)  (FT/S)
BOSTON BUOY      1450   55 57  120/  4/  4 1018.7          1/10
BUZZARDS BAY     1500   57     180/  6/  7 1019.7R
NANTUCKET SOUND  1500      56              1019.7
MASS BAY-STELLWA 1504   56 56  130/  4/  4 1019.0R  1 7/8  1/ 3
ISLE OF SHOALS   1500   52      60/  9/ 10 1019.2R
S OF BLOCK IS    1530      60                N/A           1/12
$$

......................KEY.........................
  SKY/WX - SKY CONDITION/PRESENT WEATHER
  TMP    - TEMPERATURE IN FAHRENHEIT
  DWPT   - DEWPOINT IN FAHRENHEIT
  RH     - RELATIVE HUMIDITY IN PERCENT
  WIND   - DIRECTION AND SPEED IN MPH
  PRES   - MEAN SEA LEVEL PRESSURE IN INCHES OF HG
  WCI    - WIND CHILL INDEX
  VSB    - VISIBILITY IN MILES
  HX     - HEAT INDEX
  TC     - TEMPERATURE IN CELSIUS
  VRB    - VARIABLE WIND DIRECTION
  N/A    - NOT AVAILABLE
  
      

Other recent Regional Weather Roundups

Tue Oct 22, 1:10am

Tue Oct 22, 1:00am

Tue Oct 22, 12:10am

Tue Oct 22, 12:00am

Mon Oct 21, 11:10pm

Mon Oct 21, 11:00pm

Mon Oct 21, 10:10pm

Mon Oct 21, 10:01pm

Mon Oct 21, 9:10pm

Mon Oct 21, 9:00pm

Mon Oct 21, 8:10pm

Mon Oct 21, 8:00pm

Mon Oct 21, 7:10pm

Mon Oct 21, 7:01pm

Mon Oct 21, 6:10pm

Mon Oct 21, 6:01pm

Mon Oct 21, 5:10pm

Mon Oct 21, 5:01pm

Mon Oct 21, 4:10pm

Mon Oct 21, 4:00pm

Mon Oct 21, 3:10pm

Mon Oct 21, 3:01pm

Mon Oct 21, 2:10pm

Mon Oct 21, 2:00pm

Mon Oct 21, 1:10pm

Mon Oct 21, 1:01pm

Mon Oct 21, 12:10pm

Mon Oct 21, 12:00pm

Mon Oct 21, 11:10am

Mon Oct 21, 11:00am

Mon Oct 21, 10:10am

Mon Oct 21, 10:00am

Mon Oct 21, 9:10am

Mon Oct 21, 9:00am

Mon Oct 21, 7:10am

Mon Oct 21, 7:00am

Mon Oct 21, 6:10am

Mon Oct 21, 6:00am

Mon Oct 21, 5:10am

Mon Oct 21, 5:00am

Mon Oct 21, 4:10am

Mon Oct 21, 4:00am

Mon Oct 21, 3:10am

Mon Oct 21, 3:00am

Mon Oct 21, 2:10am

Mon Oct 21, 2:01am

Mon Oct 21, 1:10am

Mon Oct 21, 1:00am

Mon Oct 21, 12:10am

Mon Oct 21, 12:00am

Sun Oct 20, 11:10pm

Sun Oct 20, 11:00pm

Sun Oct 20, 10:10pm

Sun Oct 20, 10:00pm

Sun Oct 20, 9:10pm

Sun Oct 20, 9:01pm

Sun Oct 20, 8:10pm

Sun Oct 20, 8:00pm

Sun Oct 20, 7:10pm

Sun Oct 20, 7:01pm

Sun Oct 20, 6:10pm

Sun Oct 20, 6:00pm

Sun Oct 20, 5:10pm

Sun Oct 20, 5:00pm

Sun Oct 20, 4:10pm

Sun Oct 20, 4:00pm

Sun Oct 20, 3:10pm

Sun Oct 20, 3:00pm

Sun Oct 20, 2:10pm

Sun Oct 20, 2:01pm

Sun Oct 20, 1:10pm

Sun Oct 20, 1:01pm

Sun Oct 20, 12:10pm

Sun Oct 20, 11:10am

Sun Oct 20, 11:00am

Sun Oct 20, 10:10am

Sun Oct 20, 10:00am

Sun Oct 20, 9:10am

Sun Oct 20, 9:00am

Sun Oct 20, 8:10am

Sun Oct 20, 8:00am

Sun Oct 20, 7:10am

Sun Oct 20, 7:00am

Sun Oct 20, 6:10am

Sun Oct 20, 6:00am

Sun Oct 20, 5:10am

Sun Oct 20, 5:00am

Sun Oct 20, 4:10am

Sun Oct 20, 4:00am

Sun Oct 20, 3:10am

Sun Oct 20, 3:00am

Sun Oct 20, 2:10am

Sun Oct 20, 2:00am

Sun Oct 20, 1:10am

Sun Oct 20, 1:00am

Sun Oct 20, 12:10am

Sun Oct 20, 12:00am

Sat Oct 19, 11:10pm

Sat Oct 19, 11:00pm

Sat Oct 19, 10:10pm

Sat Oct 19, 10:00pm

Sat Oct 19, 9:10pm

Sat Oct 19, 9:00pm

Sat Oct 19, 8:10pm

Sat Oct 19, 8:00pm

Sat Oct 19, 7:10pm

Sat Oct 19, 7:00pm

Sat Oct 19, 6:10pm

Sat Oct 19, 6:00pm

Sat Oct 19, 5:10pm

Sat Oct 19, 5:00pm

Sat Oct 19, 4:10pm

Sat Oct 19, 4:00pm

Sat Oct 19, 3:10pm

Sat Oct 19, 3:01pm

Sat Oct 19, 2:10pm

Sat Oct 19, 2:00pm

Sat Oct 19, 1:10pm

Sat Oct 19, 1:01pm

Sat Oct 19, 12:10pm

Sat Oct 19, 12:00pm

Sat Oct 19, 11:10am

Sat Oct 19, 11:01am

Sat Oct 19, 10:10am

Sat Oct 19, 10:00am

Sat Oct 19, 9:10am

Sat Oct 19, 9:00am

Sat Oct 19, 8:10am

Sat Oct 19, 8:00am

Sat Oct 19, 7:10am

Sat Oct 19, 7:00am

Sat Oct 19, 6:10am

Sat Oct 19, 6:00am

Sat Oct 19, 5:10am

Sat Oct 19, 5:00am

Sat Oct 19, 4:10am

Sat Oct 19, 4:00am

Sat Oct 19, 3:10am

Sat Oct 19, 3:00am

Sat Oct 19, 2:10am

Sat Oct 19, 2:00am

Meta data:

ID: 233c5ad5-7582-4d4f-95d0-e7eb69f7747f
Link: https://api.weather.gov/products/233c5ad5-7582-4d4f-95d0-e7eb69f7747f